Temple, TX

10:37 PM CST on November 14, 2019 (GMT -0600)
Draughon-Miller Central Texas Regional

Weather History for KTPL - September, 2019

Change the Weather History Date:

Saturday, September 14, 2019

  Actual Average Record
Temperature  
Mean Temperature 83 °F -  
Max Temperature 98 °F 87 °F 102 °F (2011)
Min Temperature 69 °F 66 °F 55 °F (2006)
Cooling Degree Days 18    
Growing Degree Days 33 (Base 50)    
Moisture  
Dew Point 65 °F    
Average Humidity 57    
Maximum Humidity 100    
Minimum Humidity 26    
Precipitation  
Precipitation 0.00 in - - ()
Sea Level Pressure  
Sea Level Pressure 30.07 in    
Wind  
Wind Speed 5 mph (ENE)    
Max Wind Speed 15 mph    
Max Gust Speed 20 mph    
Visibility 10 miles    
Events      
Averages and records for this station are not official NWS values.
T = Trace of Precipitation, MM = Missing Value Source: NWS Daily Summary

Daily Weather History Graph

Daily Weather History Graph

Search for Another Location

Airport or City:

Astronomy

Sep. 14, 2019 Rise Set
Actual Time 7:13 AM CDT 7:36 PM CDT
Civil Twilight 6:48 AM CDT 8:01 PM CDT
Nautical Twilight 6:20 AM CDT 8:29 PM CDT
Astronomical Twilight 5:51 AM CDT 8:58 PM CDT
Moon 8:17 PM CDT (9/14) 7:30 AM CDT (9/14)
Length of Visible Light 13h 12m
Length of Day
12h 23m
Full, 100% of the Moon is Illuminated
Sep 14
Full
Sep 21
Last Quarter
Sep 28
New
Oct 5
First Quarter
Oct 13
Full

Hourly Weather History & Observations

Time (CDT) Temp. Heat Index Dew Point Humidity Pressure Visibility Wind Dir Wind Speed Gust Speed Precip Events Conditions
12:51 AM 79.0 °F - 66.9 °F 66% 30.09 in 10.0 mi ESE 3.5 mph - N/A   Clear
1:51 AM 78.1 °F - 68.0 °F 71% 30.10 in 10.0 mi SSE 3.5 mph - N/A   Clear
2:51 AM 75.0 °F - 69.1 °F 82% 30.10 in 10.0 mi Calm Calm - N/A   Clear
3:51 AM 72.0 °F - 69.1 °F 91% 30.09 in 10.0 mi NNW 5.8 mph - N/A   Clear
4:51 AM 71.1 °F - 69.1 °F 93% 30.09 in 10.0 mi NNW 4.6 mph - N/A   Clear
5:51 AM 69.1 °F - 69.1 °F 100% 30.10 in 10.0 mi NNW 4.6 mph - N/A   Clear
6:51 AM 69.1 °F - 68.0 °F 96% 30.11 in 10.0 mi NNW 4.6 mph - N/A   Clear
7:51 AM 71.1 °F - 70.0 °F 96% 30.12 in 10.0 mi NNW 4.6 mph - N/A   Clear
8:51 AM 77.0 °F - 70.0 °F 79% 30.13 in 10.0 mi NNW 4.6 mph - N/A   Clear
9:51 AM 84.9 °F 88.8 °F 69.1 °F 59% 30.14 in 10.0 mi North 4.6 mph - N/A   Clear
10:51 AM 91.0 °F 94.3 °F 66.9 °F 45% 30.12 in 10.0 mi Variable 4.6 mph - N/A   Clear
11:51 AM 93.0 °F 95.0 °F 64.9 °F 39% 30.11 in 10.0 mi Variable 3.5 mph 16.1 mph N/A   Partly Cloudy
12:51 PM 93.9 °F 96.1 °F 64.9 °F 38% 30.09 in 10.0 mi East 9.2 mph - N/A   Mostly Cloudy
1:51 PM 97.0 °F 97.4 °F 61.0 °F 30% 30.06 in 10.0 mi East 13.8 mph - N/A   Clear
2:51 PM 97.0 °F 98.3 °F 63.0 °F 32% 30.04 in 10.0 mi NNE 9.2 mph - N/A   Partly Cloudy
3:51 PM 97.0 °F 97.8 °F 62.1 °F 31% 30.01 in 10.0 mi East 15.0 mph 19.6 mph N/A   Clear
4:51 PM 93.0 °F 93.8 °F 62.1 °F 36% 30.01 in 10.0 mi East 6.9 mph - N/A   Clear
5:51 PM 97.0 °F 95.7 °F 57.0 °F 26% 30.00 in 10.0 mi East 12.7 mph 18.4 mph N/A   Partly Cloudy
6:51 PM 93.0 °F 92.3 °F 59.0 °F 32% 30.01 in 10.0 mi ENE 11.5 mph - N/A   Clear
7:51 PM 86.0 °F 85.0 °F 57.9 °F 38% 30.00 in 10.0 mi ENE 6.9 mph - N/A   Clear
8:51 PM 82.9 °F 82.8 °F 59.0 °F 44% 30.03 in 10.0 mi East 6.9 mph - N/A   Clear
9:51 PM 82.9 °F 83.3 °F 61.0 °F 47% 30.04 in 10.0 mi East 6.9 mph - N/A   Scattered Clouds
10:51 PM 81.0 °F 81.9 °F 62.1 °F 52% 30.05 in 10.0 mi East 6.9 mph - N/A   Clear
11:51 PM 82.0 °F 83.1 °F 63.0 °F 52% 30.05 in 10.0 mi SE 6.9 mph - N/A   Partly Cloudy